KC5AYO Weather Reports


Display with metric or nautical units.
time (UTC)temp
F
wind
direction
speed
MPH
gust
MPH
rain 1hr
in
rain 24hr
in
rain mn
in
humidity
%
barometer
mb
20260904223553 93 196 0.0 0.0 0.00 0.00 0.00 54 1011.4
20260904223056 93 207 0.0 2.0 0.00 0.00 0.00 53 1011.3
20260904222552 93 260 0.0 2.0 0.00 0.00 0.00 54 1011.4
20260904222052 94 321 0.0 2.0 0.00 0.00 0.00 53 1011.4
20260904221555 94 201 0.0 1.0 0.00 0.00 0.00 54 1011.4
20260904221051 94 301 0.0 1.0 0.00 0.00 0.00 56 1011.4
20260904220551 94 327 0.0 1.0 0.00 0.00 0.00 54 1011.5
20260904220106 94 173 0.0 2.0 0.00 0.00 0.00 55 1011.4
20260904215551 94 300 0.0 2.0 0.00 0.00 0.00 54 1011.4
20260904215055 94 230 0.0 2.0 0.00 0.00 0.00 54 1011.3
20260904214550 94 300 0.0 2.0 0.00 0.00 0.00 57 1011.4
20260904214050 94 258 0.0 2.0 0.00 0.00 0.00 55 1011.4
20260904213551 93 336 0.0 2.0 0.00 0.00 0.00 55 1011.5
20260904213050 93 341 0.0 3.0 0.00 0.00 0.00 56 1011.5
20260904212552 93 347 0.0 3.0 0.00 0.00 0.00 55 1011.4
20260904212049 94 304 0.0 3.0 0.00 0.00 0.00 55 1011.5
20260904211554 94 323 0.0 1.0 0.00 0.00 0.00 56 1011.6
20260904211048 93 316 0.0 4.0 0.00 0.00 0.00 54 1011.6
20260904210547 94 294 0.0 4.0 0.00 0.00 0.00 55 1011.7
20260904210054 94 304 0.0 4.0 0.00 0.00 0.00 54 1011.9
20260904205546 94 309 1.0 4.0 0.00 0.00 0.00 54 1011.9
20260904205045 94 327 0.0 2.0 0.00 0.00 0.00 55 1012.0
20260904204544 94 294 0.0 2.0 0.00 0.00 0.00 57 1012.0
20260904204044 94 349 0.0 2.0 0.00 0.00 0.00 55 1012.1
20260904203544 94 300 0.0 3.0 0.00 0.00 0.00 56 1012.0
20260904203044 94 360 0.0 3.0 0.00 0.00 0.00 54 1012.2
20260904202543 94 327 0.0 3.0 0.00 0.00 0.00 56 1012.2
20260904202044 94 350 0.0 3.0 0.00 0.00 0.00 53 1012.3
20260904201545 94 334 0.0 3.0 0.00 0.00 0.00 54 1012.4
20260904201042 94 349 0.0 3.0 0.00 0.00 0.00 54 1012.3
20260904200542 94 328 0.0 3.0 0.00 0.00 0.00 55 1012.3
20260904200100 95 306 0.0 3.0 0.00 0.00 0.00 54 1012.4
20260904195541 95 303 0.0 2.0 0.00 0.00 0.00 53 1012.4
20260904195041 95 311 0.0 3.0 0.00 0.00 0.00 53 1012.4
20260904194622 95 305 0.0 3.0 0.00 0.00 0.00 52 1012.5
20260904194040 96 171 0.0 2.0 0.00 0.00 0.00 51 1012.5
20260904193540 95 316 0.0 3.0 0.00 0.00 0.00 49 1012.6
20260904193043 95 293 0.0 3.0 0.00 0.00 0.00 51 1012.6
20260904192537 95 287 0.0 3.0 0.00 0.00 0.00 53 1012.8
20260904192037 95 9 0.0 5.0 0.00 0.00 0.00 51 1012.9
20260904191537 95 312 0.0 5.0 0.00 0.00 0.00 53 1012.9
20260904191038 96 298 1.0 4.0 0.00 0.00 0.00 53 1012.9
20260904190536 96 286 0.0 3.0 0.00 0.00 0.00 54 1013.0
20260904190036 96 329 0.0 3.0 0.00 0.00 0.00 52 1013.1
20260904185535 95 295 0.0 4.0 0.00 0.00 0.00 53 1013.1
20260904185036 95 308 0.0 4.0 0.00 0.00 0.00 54 1013.2
20260904184535 96 306 0.0 3.0 0.00 0.00 0.00 53 1013.2
20260904184035 95 196 0.0 3.0 0.00 0.00 0.00 54 1013.2
20260904183533 95 81 0.0 3.0 0.00 0.00 0.00 55 1013.3
20260904183033 95 289 0.0 3.0 0.00 0.00 0.00 54 1013.3
20260904182536 95 349 0.0 3.0 0.00 0.00 0.00 54 1013.4
20260904182032 94 331 0.0 2.0 0.00 0.00 0.00 57 1013.4
20260904181536 93 273 0.0 2.0 0.00 0.00 0.00 58 1013.4
20260904181031 94 305 0.0 2.0 0.00 0.00 0.00 55 1013.5
20260904180532 94 343 0.0 2.0 0.00 0.00 0.00 56 1013.6
20260904180029 94 323 0.0 2.0 0.00 0.00 0.00 56 1013.7
20260904175530 93 309 0.0 3.0 0.00 0.00 0.00 57 1013.7
20260904175028 93 316 0.0 3.0 0.00 0.00 0.00 57 1013.8
20260904174528 93 144 0.0 2.0 0.00 0.00 0.00 57 1013.9
20260904174029 93 187 0.0 2.0 0.00 0.00 0.00 59 1014.0
20260904173528 93 294 0.0 3.0 0.00 0.00 0.00 59 1014.0
20260904173035 93 302 0.0 3.0 0.00 0.00 0.00 58 1014.1
20260904172528 93 263 0.0 4.0 0.00 0.00 0.00 58 1014.1
20260904172028 94 330 1.0 4.0 0.00 0.00 0.00 58 1014.1
20260904171538 94 315 0.0 3.0 0.00 0.00 0.00 56 1014.2
20260904171025 94 290 0.0 4.0 0.00 0.00 0.00 57 1014.2
20260904170530 94 261 0.0 4.0 0.00 0.00 0.00 55 1014.3
20260904170025 94 323 0.0 3.0 0.00 0.00 0.00 57 1014.2
20260904165523 93 306 0.0 3.0 0.00 0.00 0.00 57 1014.4
20260904165022 93 196 0.0 3.0 0.00 0.00 0.00 59 1014.4
20260904164522 93 306 0.0 3.0 0.00 0.00 0.00 56 1014.4
20260904164025 93 336 0.0 2.0 0.00 0.00 0.00 58 1014.4
20260904163518 92 302 0.0 3.0 0.00 0.00 0.00 58 1014.4
20260904163017 92 338 0.0 3.0 0.00 0.00 0.00 60 1014.5
20260904162517 92 325 0.0 1.0 0.00 0.00 0.00 60 1014.5
20260904162019 91 317 0.0 4.0 0.00 0.00 0.00 62 1014.5
20260904161513 91 284 0.0 4.0 0.00 0.00 0.00 62 1014.5
20260904161012 91 321 0.0 4.0 0.00 0.00 0.00 62 1014.6
20260904160512 90 340 1.0 4.0 0.00 0.00 0.00 62 1014.6
20260904160010 90 306 0.0 4.0 0.00 0.00 0.00 63 1014.5
20260904155509 90 338 0.0 2.0 0.00 0.00 0.00 65 1014.5
20260904155008 90 64 0.0 3.0 0.00 0.00 0.00 64 1014.4
20260904154508 89 338 0.0 3.0 0.00 0.00 0.00 63 1014.4
20260904154006 89 306 0.0 4.0 0.00 0.00 0.00 64 1014.5
20260904153506 89 15 1.0 4.0 0.00 0.00 0.00 65 1014.5
20260904153015 89 349 0.0 3.0 0.00 0.00 0.00 65 1014.5
20260904152503 88 315 0.0 3.0 0.00 0.00 0.00 66 1014.4
20260904152002 88 336 0.0 2.0 0.00 0.00 0.00 67 1014.4
20260904151502 88 310 0.0 2.0 0.00 0.00 0.00 67 1014.4
20260904151101 88 17 0.0 2.0 0.00 0.00 0.00 66 1014.5
20260904150600 88 5 0.0 2.0 0.00 0.00 0.00 68 1014.5
20260904150059 87 314 0.0 2.0 0.00 0.00 0.00 66 1014.5
20260904145559 87 319 0.0 2.0 0.00 0.00 0.00 69 1014.5
20260904145056 87 309 0.0 2.0 0.00 0.00 0.00 68 1014.4
20260904144557 87 5 0.0 2.0 0.00 0.00 0.00 68 1014.5
20260904144100 86 306 0.0 2.0 0.00 0.00 0.00 69 1014.5
20260904143556 86 305 0.0 2.0 0.00 0.00 0.00 72 1014.4
20260904143053 86 320 0.0 2.0 0.00 0.00 0.00 71 1014.3
20260904142551 85 346 0.0 2.0 0.00 0.00 0.00 72 1014.3
20260904142051 85 300 0.0 2.0 0.00 0.00 0.00 73 1014.4
20260904141616 84 226 0.0 2.0 0.00 0.00 0.00 77 1014.4
20260904141048 84 226 0.0 2.0 0.00 0.00 0.00 76 1014.3
20260904140547 84 282 0.0 2.0 0.00 0.00 0.00 78 1014.3
20260904140100 84 171 0.0 2.0 0.00 0.00 0.00 77 1014.2
20260904135546 83 167 0.0 3.0 0.00 0.00 0.00 78 1014.1
20260904135045 82 273 0.0 2.0 0.00 0.00 0.00 82 1014.1
20260904134549 82 273 0.0 2.0 0.00 0.00 0.00 82 1014.2
20260904134042 82 273 0.0 1.0 0.00 0.00 0.00 83 1014.2
20260904133541 81 273 0.0 1.0 0.00 0.00 0.00 84 1014.4
20260904133055 81 273 0.0 1.0 0.00 0.00 0.00 83 1014.5
20260904132541 81 35 0.0 0.0 0.00 0.00 0.00 82 1014.5
20260904132039 81 35 0.0 0.0 0.00 0.00 0.00 85 1014.5
20260904131537 80 35 0.0 0.0 0.00 0.00 0.00 84 1014.5
20260904131038 79 35 0.0 0.0 0.00 0.00 0.00 86 1014.5
20260904130534 79 35 0.0 0.0 0.00 0.00 0.00 87 1014.5
20260904130034 79 35 0.0 0.0 0.00 0.00 0.00 88 1014.5
20260904125533 79 35 0.0 0.0 0.00 0.00 0.00 89 1014.5
20260904125037 78 35 0.0 0.0 0.00 0.00 0.00 89 1014.5
20260904124535 78 35 0.0 0.0 0.00 0.00 0.00 89 1014.3
20260904124033 78 35 0.0 0.0 0.00 0.00 0.00 89 1014.4
20260904123532 78 35 0.0 0.0 0.00 0.00 0.00 90 1014.4
20260904123030 77 35 0.0 0.0 0.00 0.00 0.00 89 1014.3
20260904122530 77 35 0.0 0.0 0.00 0.00 0.00 89 1014.1
20260904122029 76 35 0.0 0.0 0.00 0.00 0.00 90 1014.0
20260904121535 77 35 0.0 0.0 0.00 0.00 0.00 91 1013.9
20260904121028 76 35 0.0 0.0 0.00 0.00 0.00 91 1013.7
20260904120526 76 35 0.0 0.0 0.00 0.00 0.00 91 1013.6
20260904120027 76 35 0.0 0.0 0.00 0.00 0.00 90 1013.5
20260904115524 75 35 0.0 0.0 0.00 0.00 0.00 90 1013.4
20260904115024 75 35 0.0 0.0 0.00 0.00 0.00 90 1013.3
20260904114524 74 35 0.0 0.0 0.00 0.00 0.00 91 1013.2
20260904114024 74 35 0.0 0.0 0.00 0.00 0.00 91 1013.1
20260904113525 74 35 0.0 0.0 0.00 0.00 0.00 92 1013.1
20260904113032 74 35 0.0 0.0 0.00 0.00 0.00 92 1013.1
20260904112522 74 35 0.0 0.0 0.00 0.00 0.00 92 1013.1
20260904112026 74 35 0.0 0.0 0.00 0.00 0.00 91 1013.2
20260904111525 74 35 0.0 0.0 0.00 0.00 0.00 91 1013.1
20260904111027 74 35 0.0 0.0 0.00 0.00 0.00 91 1013.1
20260904110520 75 35 0.0 0.0 0.00 0.00 0.00 91 1013.1
20260904110020 75 35 0.0 0.0 0.00 0.00 0.00 91 1013.1
20260904105519 75 35 0.0 0.0 0.00 0.00 0.00 91 1013.0
20260904105019 75 35 0.0 0.0 0.00 0.00 0.00 91 1013.0
20260904104517 76 35 0.0 0.0 0.00 0.00 0.00 92 1013.0
20260904104018 76 35 0.0 0.0 0.00 0.00 0.00 92 1013.1
20260904103517 76 35 0.0 0.0 0.00 0.00 0.00 91 1013.0
20260904103018 76 35 0.0 0.0 0.00 0.00 0.00 90 1013.1
20260904102518 76 35 0.0 0.0 0.00 0.00 0.00 91 1013.1
20260904102018 75 35 0.0 0.0 0.00 0.00 0.00 89 1013.2
20260904101517 75 35 0.0 0.0 0.00 0.00 0.00 89 1013.2
20260904101018 76 35 0.0 0.0 0.00 0.00 0.00 89 1013.2
20260904100516 76 35 0.0 0.0 0.00 0.00 0.00 88 1013.1
20260904100016 76 35 0.0 0.0 0.00 0.00 0.00 88 1013.1
20260904095518 76 35 0.0 0.0 0.00 0.00 0.00 89 1013.1
20260904095016 76 35 0.0 0.0 0.00 0.00 0.00 90 1013.1
20260904094516 76 35 0.0 0.0 0.00 0.00 0.00 91 1013.1
20260904094016 75 35 0.0 0.0 0.00 0.00 0.00 91 1013.0
20260904093519 75 35 0.0 0.0 0.00 0.00 0.00 91 1013.0
20260904093016 75 35 0.0 0.0 0.00 0.00 0.00 91 1013.0
20260904092516 75 35 0.0 0.0 0.00 0.00 0.00 91 1013.0
20260904092016 75 35 0.0 0.0 0.00 0.00 0.00 92 1013.0
20260904091515 75 35 0.0 0.0 0.00 0.00 0.00 92 1013.0
20260904091013 76 35 0.0 0.0 0.00 0.00 0.00 92 1013.0
20260904090512 76 35 0.0 0.0 0.00 0.00 0.00 92 1013.0
20260904090013 76 35 0.0 0.0 0.00 0.00 0.00 92 1013.1
20260904085513 76 35 0.0 0.0 0.00 0.00 0.00 92 1013.1
20260904085012 76 35 0.0 0.0 0.00 0.00 0.00 92 1013.0
20260904084511 76 35 0.0 0.0 0.00 0.00 0.00 92 1013.1
20260904084010 76 35 0.0 0.0 0.00 0.00 0.00 92 1013.1
20260904083510 76 35 0.0 0.0 0.00 0.00 0.00 93 1013.2
20260904083015 76 35 0.0 0.0 0.00 0.00 0.00 92 1013.1
20260904082511 76 35 0.0 0.0 0.00 0.00 0.00 92 1013.1
20260904082013 76 35 0.0 0.0 0.00 0.00 0.00 92 1013.1
20260904081515 76 35 0.0 0.0 0.00 0.00 0.00 92 1013.2
20260904081010 76 35 0.0 0.0 0.00 0.00 0.00 92 1013.1
20260904080510 76 35 0.0 0.0 0.00 0.00 0.00 92 1013.2
20260904080009 76 35 0.0 0.0 0.00 0.00 0.00 93 1013.1
20260904075510 76 35 0.0 0.0 0.00 0.00 0.00 93 1013.1
20260904075009 76 35 0.0 0.0 0.00 0.00 0.00 93 1013.2
20260904074516 76 35 0.0 0.0 0.00 0.00 0.00 93 1013.2
20260904074008 76 35 0.0 0.0 0.00 0.00 0.00 93 1013.2
20260904073510 76 35 0.0 0.0 0.00 0.00 0.00 93 1013.2
20260904073008 76 35 0.0 0.0 0.00 0.00 0.00 93 1013.1
20260904072508 76 35 0.0 0.0 0.00 0.00 0.00 93 1013.2
20260904072007 76 35 0.0 0.0 0.00 0.00 0.00 93 1013.2
20260904071507 76 35 0.0 0.0 0.00 0.00 0.00 93 1013.2
20260904071008 76 35 0.0 0.0 0.00 0.00 0.00 92 1013.2
20260904070506 77 35 0.0 0.0 0.00 0.00 0.00 92 1013.2
20260904070006 77 35 0.0 0.0 0.00 0.00 0.00 92 1013.3
20260904065506 77 35 0.0 0.0 0.00 0.00 0.00 93 1013.3
20260904065006 77 35 0.0 0.0 0.00 0.00 0.00 93 1013.2
20260904064505 77 35 0.0 0.0 0.00 0.00 0.00 93 1013.2
20260904064004 77 35 0.0 0.0 0.00 0.00 0.00 93 1013.3
20260904063504 77 35 0.0 0.0 0.00 0.00 0.00 93 1013.3
20260904063007 77 35 0.0 0.0 0.00 0.00 0.00 93 1013.3
20260904062504 77 35 0.0 0.0 0.00 0.00 0.00 93 1013.3
20260904062003 77 35 0.0 0.0 0.00 0.00 0.00 93 1013.4
20260904061509 77 35 0.0 0.0 0.00 0.00 0.00 93 1013.4
20260904061003 77 35 0.0 0.0 0.00 0.00 0.00 93 1013.4
20260904060503 77 35 0.0 0.0 0.00 0.00 0.00 93 1013.4
20260904060006 77 35 0.0 0.0 0.00 0.00 0.00 93 1013.5
20260904055501 77 35 0.0 0.0 0.00 0.00 0.00 92 1013.5
20260904055002 77 35 0.0 0.0 0.00 0.00 0.00 92 1013.4
20260904054502 77 35 0.0 0.0 0.00 0.00 0.00 92 1013.4
20260904054104 77 35 0.0 0.0 0.00 0.00 0.00 92 1013.4
20260904053600 78 35 0.0 0.0 0.00 0.00 0.00 92 1013.4
20260904053104 78 35 0.0 0.0 0.00 0.00 0.00 92 1013.4
20260904052559 78 35 0.0 0.0 0.00 0.00 0.00 91 1013.4
20260904052059 78 35 0.0 0.0 0.00 0.00 0.00 91 1013.5
20260904051559 78 35 0.0 0.0 0.00 0.00 0.00 91 1013.4
20260904051058 78 35 0.0 0.0 0.00 0.00 0.00 90 1013.5
20260904050557 78 35 0.0 0.0 0.00 0.00 0.00 91 1013.4
20260904050126 78 35 0.0 0.0 0.00 0.00 0.00 90 1013.4
20260904045557 78 35 0.0 0.0 0.00 0.00 0.00 90 1013.5
20260904045056 78 35 0.0 0.0 0.00 0.00 0.00 90 1013.4
20260904044559 78 35 0.0 0.0 0.00 0.00 0.00 89 1013.4
20260904044055 78 35 0.0 0.0 0.00 0.00 0.00 88 1013.3
20260904043554 79 35 0.0 0.0 0.00 0.00 0.00 88 1013.4
20260904043055 79 35 0.0 0.0 0.00 0.00 0.00 89 1013.4
20260904042553 79 35 0.0 0.0 0.00 0.00 0.00 91 1013.4
20260904042056 79 35 0.0 0.0 0.00 0.00 0.00 91 1013.3
20260904041556 79 35 0.0 0.0 0.00 0.00 0.00 90 1013.4
20260904041052 79 35 0.0 0.0 0.00 0.00 0.00 89 1013.3
20260904040551 79 35 0.0 0.0 0.00 0.00 0.00 89 1013.3
20260904040050 79 35 0.0 0.0 0.00 0.00 0.00 90 1013.2
20260904035550 79 35 0.0 0.0 0.00 0.00 0.00 91 1013.1
20260904035049 79 35 0.0 0.0 0.00 0.00 0.00 91 1013.2
20260904034602 79 35 0.0 0.0 0.00 0.00 0.00 91 1013.2
20260904034050 79 35 0.0 0.0 0.00 0.00 0.00 91 1013.2
20260904033549 79 35 0.0 0.0 0.00 0.00 0.00 91 1013.3
20260904033048 79 35 0.0 0.0 0.00 0.00 0.00 90 1013.2
20260904032548 79 35 0.0 0.0 0.00 0.00 0.00 90 1013.3
20260904032048 79 35 0.0 0.0 0.00 0.00 0.00 90 1013.3
20260904031548 80 35 0.0 0.0 0.00 0.00 0.00 90 1013.3
20260904031048 80 35 0.0 0.0 0.00 0.00 0.00 90 1013.3
20260904030548 80 35 0.0 0.0 0.00 0.00 0.00 89 1013.4
20260904030048 80 35 0.0 0.0 0.00 0.00 0.00 89 1013.4
20260904025547 80 35 0.0 0.0 0.00 0.00 0.00 89 1013.5
20260904025047 80 35 0.0 0.0 0.00 0.00 0.00 89 1013.4
20260904024548 80 35 0.0 0.0 0.00 0.00 0.00 89 1013.5
20260904024047 80 35 0.0 0.0 0.00 0.00 0.00 89 1013.5
20260904023547 80 35 0.0 0.0 0.00 0.00 0.00 88 1013.4
20260904023048 80 35 0.0 0.0 0.00 0.00 0.00 88 1013.5
20260904022547 81 35 0.0 0.0 0.00 0.00 0.00 88 1013.4
20260904022047 81 35 0.0 0.0 0.00 0.00 0.00 88 1013.4
20260904021546 81 35 0.0 0.0 0.00 0.00 0.00 87 1013.4
20260904021046 81 35 0.0 0.0 0.00 0.00 0.00 87 1013.3
20260904020546 81 35 0.0 0.0 0.00 0.00 0.00 87 1013.4
20260904020049 81 35 0.0 0.0 0.00 0.00 0.00 87 1013.5
20260904015545 81 35 0.0 0.0 0.00 0.00 0.00 86 1013.4
20260904015045 82 35 0.0 0.0 0.00 0.00 0.00 86 1013.4
20260904014547 82 35 0.0 0.0 0.00 0.00 0.00 86 1013.5
20260904014045 82 35 0.0 0.0 0.00 0.00 0.00 85 1013.5
20260904013548 82 35 0.0 0.0 0.00 0.00 0.00 84 1013.4
20260904013052 82 35 0.0 0.0 0.00 0.00 0.00 84 1013.4
20260904012545 82 35 0.0 0.0 0.00 0.00 0.00 83 1013.3
20260904012048 83 35 0.0 0.0 0.00 0.00 0.00 82 1013.2
20260904011545 83 35 0.0 0.0 0.00 0.00 0.00 81 1013.1
20260904011044 83 35 0.0 0.0 0.00 0.00 0.00 80 1013.0
20260904010546 83 35 0.0 0.0 0.00 0.00 0.00 79 1013.1
20260904010044 84 35 0.0 0.0 0.00 0.00 0.00 78 1013.2
20260904005543 84 35 0.0 0.0 0.00 0.00 0.00 78 1013.0
20260904005044 84 35 0.0 0.0 0.00 0.00 0.00 78 1013.0
20260904004543 84 35 0.0 0.0 0.00 0.00 0.00 77 1012.9
20260904004045 84 35 0.0 0.0 0.00 0.00 0.00 76 1012.9
20260904003546 84 35 0.0 0.0 0.00 0.00 0.00 77 1012.8
20260904003043 85 35 0.0 0.0 0.00 0.00 0.00 75 1012.7
20260904002543 85 35 0.0 0.0 0.00 0.00 0.00 75 1012.8
20260904002043 85 35 0.0 0.0 0.00 0.00 0.00 76 1012.7
20260904001545 86 35 0.0 0.0 0.00 0.00 0.00 77 1012.6
20260904001043 86 35 0.0 0.0 0.00 0.00 0.00 76 1012.6
20260904000542 86 35 0.0 0.0 0.00 0.00 0.00 75 1012.6
20260904000042 87 35 0.0 0.0 0.00 0.00 0.00 73 1012.7
20260903235542 87 35 0.0 0.0 0.00 0.00 0.00 71 1012.6
20260903235041 88 35 0.0 0.0 0.00 0.00 0.00 72 1012.4
20260903234542 88 35 0.0 0.0 0.00 0.00 0.00 70 1012.4
20260903234042 89 35 0.0 0.0 0.00 0.00 0.00 70 1012.5
20260903233541 90 35 0.0 0.0 0.00 0.00 0.00 69 1012.5
20260903233042 89 35 0.0 0.0 0.00 0.00 0.00 66 1012.4
20260903232541 90 35 0.0 0.0 0.00 0.00 0.00 64 1012.5
20260903232041 91 35 0.0 1.0 0.00 0.00 0.00 61 1012.5
20260903231557 91 35 0.0 2.0 0.00 0.00 0.00 60 1012.4
20260903231040 91 163 0.0 2.0 0.00 0.00 0.00 59 1012.3
20260903230540 91 161 0.0 1.0 0.00 0.00 0.00 59 1012.4
20260903230041 92 161 0.0 2.0 0.00 0.00 0.00 61 1012.3
20260903225540 92 161 0.0 2.0 0.00 0.00 0.00 61 1012.3
20260903225039 92 134 0.0 1.0 0.00 0.00 0.00 60 1012.3
20260903224540 92 134 0.0 1.0 0.00 0.00 0.00 56 1012.3
20260903224044 92 161 0.0 3.0 0.00 0.00 0.00 57 1012.4